Fortuna, CA

1:50 AM PST on February 13, 2016 (GMT -0800)
Rohnerville

Weather History for KFOT - April, 2014

Change the Weather History Date:

Tuesday, April 22, 2014

  Actual Average (KEKA) Record (KEKA)
Temperature  
Mean Temperature 48 °F 51 °F  
Max Temperature 55 °F 58 °F 75 °F (1982)
Min Temperature 42 °F 45 °F 37 °F (1968)
Degree Days  
Heating Degree Days 16 14  
Month to date heating degree days 319  
Since 1 July heating degree days 3717  
Cooling Degree Days 0 0  
Month to date cooling degree days 0  
Year to date cooling degree days 0  
Moisture  
Dew Point 42 °F    
Average Humidity 80    
Maximum Humidity 100    
Minimum Humidity 54    
Precipitation  
Precipitation 0.07 in 0.10 in 1.46 in (1983)
Month to date precipitation 2.61  
Year to date precipitation 20.04  
Snow  
Snow 0.00 in 0.00 in 0.00 in (2002)
Month to date snowfall 0.0  
Since 1 July snowfall 0.2  
Snow Depth -    
Sea Level Pressure  
Sea Level Pressure 30.12 in    
Wind  
Wind Speed 4 mph (NW)    
Max Wind Speed 15 mph    
Max Gust Speed 17 mph    
Visibility 9 miles    
Events      
T = Trace of Precipitation, MM = Missing Value Source: NWS Daily Summary

Daily Weather History Graph

Daily Weather History Graph

Search for Another Location

Airport or City:

Trip Planner

Search our weather history database for the weather conditions in past years. The results will help you decide how hot, cold, wet, or windy it might be!

Date:

Astronomy

Apr. 22, 2014 Rise Set
Actual Time 6:27 AM PDT 8:03 PM PDT
Civil Twilight 5:58 AM PDT 8:32 PM PDT
Nautical Twilight 5:23 AM PDT 9:06 PM PDT
Astronomical Twilight 4:46 AM PDT 9:44 PM PDT
Moon 2:22 AM PDT (4/22) 1:09 PM PDT (4/22)
Length of Visible Light 14h 33m
Length of Day
13h 35m
Last Quarter, 45% of the Moon is Illuminated
Apr 22
Last Quarter
Apr 28
New
May 6
First Quarter
May 14
Full
May 21
Last Quarter

Hourly Weather History & Observations

Time (PDT) Temp. Windchill Dew Point Humidity Pressure Visibility Wind Dir Wind Speed Gust Speed Precip Events Conditions
12:15 AM 46.4 °F 45.2 °F 44.6 °F 93% 30.03 in 10.0 mi SSW 3.5 mph - N/A   Overcast
12:35 AM 46.4 °F 45.2 °F 44.6 °F 93% 30.03 in 10.0 mi SW 3.5 mph - N/A   Overcast
12:55 AM 46.4 °F 45.2 °F 44.6 °F 93% 30.04 in 10.0 mi SW 3.5 mph - N/A   Overcast
1:15 AM 46.4 °F - 44.6 °F 93% 30.04 in 10.0 mi Calm Calm - N/A   Overcast
1:35 AM 46.4 °F - 44.6 °F 93% 30.03 in 10.0 mi Calm Calm - N/A   Overcast
1:55 AM 46.4 °F - 44.6 °F 93% 30.04 in 10.0 mi Calm Calm - N/A   Overcast
2:15 AM 44.6 °F 42.2 °F 44.6 °F 100% 30.04 in 3.0 mi NW 4.6 mph - N/A   Mostly Cloudy
2:35 AM 44.6 °F 43.1 °F 44.6 °F 100% 30.04 in 10.0 mi WNW 3.5 mph - N/A   Overcast
2:55 AM 44.6 °F - 44.6 °F 100% 30.04 in 10.0 mi Calm Calm - N/A   Overcast
3:15 AM 44.6 °F 43.1 °F 44.6 °F 100% 30.04 in 3.0 mi North 3.5 mph - 0.04 in   Overcast
3:35 AM 44.6 °F - 44.6 °F 100% 30.05 in 8.0 mi Calm Calm - 0.06 in   Overcast
3:55 AM 44.6 °F 43.1 °F 44.6 °F 100% 30.05 in 5.0 mi WNW 3.5 mph - 0.06 in   Overcast
4:15 AM 44.6 °F - 44.6 °F 100% 30.05 in 10.0 mi Calm Calm - N/A   Overcast
4:35 AM 44.6 °F - 44.6 °F 100% 30.06 in 10.0 mi Calm Calm - N/A   Overcast
4:55 AM 44.6 °F - 44.6 °F 100% 30.06 in 7.0 mi Calm Calm - N/A   Overcast
5:15 AM 44.6 °F - 44.6 °F 100% 30.07 in 10.0 mi Calm Calm - N/A   Overcast
5:35 AM 44.6 °F - 44.6 °F 100% 30.07 in 10.0 mi Calm Calm - N/A   Mostly Cloudy
5:55 AM 42.8 °F - 42.8 °F 100% 30.07 in 0.2 mi Calm Calm - N/A   Overcast
6:15 AM 44.6 °F - 44.6 °F 100% 30.08 in 0.2 mi Calm Calm - N/A   Overcast
6:35 AM 44.6 °F - 44.6 °F 100% 30.08 in 0.5 mi Calm Calm - N/A   Overcast
6:55 AM 44.6 °F 42.2 °F 44.6 °F 100% 30.09 in 3.0 mi SW 4.6 mph - N/A   Mostly Cloudy
7:15 AM 44.6 °F 43.1 °F 44.6 °F 100% 30.09 in 0.2 mi SW 3.5 mph - N/A   Overcast
7:35 AM 44.6 °F - 44.6 °F 100% 30.10 in 10.0 mi Calm Calm - N/A   Scattered Clouds
7:55 AM 44.6 °F - 44.6 °F 100% 30.10 in 10.0 mi Calm Calm - N/A   Mostly Cloudy
8:15 AM 44.6 °F 43.1 °F 44.6 °F 100% 30.10 in 10.0 mi SSE 3.5 mph - N/A   Overcast
8:35 AM 46.4 °F - 44.6 °F 93% 30.11 in 10.0 mi Calm Calm - N/A   Overcast
8:55 AM 46.4 °F - 42.8 °F 87% 30.12 in 10.0 mi Calm Calm - N/A   Overcast
9:15 AM 46.4 °F 45.2 °F 42.8 °F 87% 30.12 in 5.0 mi North 3.5 mph - 0.01 in   Mostly Cloudy
9:35 AM 48.2 °F - 42.8 °F 82% 30.12 in 10.0 mi Calm Calm - 0.01 in   Partly Cloudy
9:55 AM 50.0 °F - 42.8 °F 76% 30.12 in 10.0 mi Calm Calm - 0.01 in   Clear
10:15 AM 48.2 °F - 41.0 °F 76% 30.12 in 10.0 mi Calm Calm - N/A   Clear
10:35 AM 50.0 °F - 39.2 °F 66% 30.13 in 10.0 mi SW 4.6 mph - N/A   Partly Cloudy
10:55 AM 51.8 °F - 41.0 °F 67% 30.13 in 10.0 mi WNW 4.6 mph - N/A   Clear
11:15 AM 53.6 °F - 44.6 °F 72% 30.13 in 10.0 mi West 5.8 mph - N/A   Clear
11:35 AM 53.6 °F - 39.2 °F 58% 30.13 in 10.0 mi NNW 4.6 mph - N/A   Scattered Clouds
11:55 AM 51.8 °F - 41.0 °F 67% 30.14 in 10.0 mi NW 4.6 mph - N/A   Mostly Cloudy
12:15 PM 53.6 °F - 41.0 °F 62% 30.14 in 10.0 mi NNW 4.6 mph - N/A   Scattered Clouds
12:35 PM 55.4 °F - 41.0 °F 58% 30.13 in 10.0 mi West 5.8 mph - N/A   Scattered Clouds
12:55 PM 55.4 °F - 41.0 °F 58% 30.14 in 10.0 mi NNW 9.2 mph - N/A   Partly Cloudy
1:15 PM 55.4 °F - 39.2 °F 54% 30.14 in 10.0 mi WNW 9.2 mph - N/A   Partly Cloudy
1:35 PM 55.4 °F - 39.2 °F 54% 30.14 in 10.0 mi NW 11.5 mph - N/A   Clear
1:55 PM 55.4 °F - 39.2 °F 54% 30.14 in 10.0 mi WNW 10.4 mph - N/A   Clear
2:15 PM 55.4 °F - 41.0 °F 58% 30.14 in 10.0 mi NW 10.4 mph - N/A   Clear
2:35 PM 55.4 °F - 39.2 °F 54% 30.14 in 10.0 mi NW 12.7 mph 17.3 mph N/A   Clear
2:55 PM 55.4 °F - 41.0 °F 58% 30.14 in 10.0 mi NW 11.5 mph 16.1 mph N/A   Clear
3:15 PM 55.4 °F - 41.0 °F 58% 30.15 in 10.0 mi WNW 10.4 mph - N/A   Clear
3:35 PM 55.4 °F - 39.2 °F 54% 30.15 in 10.0 mi NW 13.8 mph - N/A   Clear
3:55 PM 55.4 °F - 39.2 °F 54% 30.15 in 10.0 mi NW 15.0 mph - N/A   Partly Cloudy
4:15 PM 55.4 °F - 39.2 °F 54% 30.15 in 10.0 mi NW 11.5 mph - N/A   Partly Cloudy
4:35 PM 55.4 °F - 39.2 °F 54% 30.15 in 10.0 mi NNW 13.8 mph - N/A   Clear
4:55 PM 55.4 °F - 41.0 °F 58% 30.14 in 10.0 mi NW 11.5 mph - N/A   Clear
5:15 PM 55.4 °F - 39.2 °F 54% 30.15 in 10.0 mi NW 13.8 mph - N/A   Clear
5:35 PM 53.6 °F - 41.0 °F 62% 30.15 in 10.0 mi NW 10.4 mph - N/A   Clear
5:55 PM 53.6 °F - 39.2 °F 58% 30.15 in 10.0 mi NW 10.4 mph - N/A   Clear
6:15 PM 53.6 °F - 39.2 °F 58% 30.15 in 10.0 mi NW 9.2 mph - N/A   Clear
6:35 PM 51.8 °F - 41.0 °F 67% 30.15 in 10.0 mi WNW 6.9 mph - N/A   Clear
6:55 PM 50.0 °F - 39.2 °F 66% 30.16 in 10.0 mi NW 5.8 mph - N/A   Clear
7:15 PM 50.0 °F - 41.0 °F 71% 30.15 in 10.0 mi NW 6.9 mph - N/A   Clear
7:35 PM 50.0 °F - 41.0 °F 71% 30.15 in 10.0 mi NW 4.6 mph - N/A   Clear
7:55 PM 48.2 °F - 41.0 °F 76% 30.16 in 10.0 mi NNW 3.5 mph - N/A   Clear
8:15 PM 48.2 °F - 41.0 °F 76% 30.16 in 10.0 mi NW 3.5 mph - N/A   Mostly Cloudy
8:35 PM 50.0 °F - 41.0 °F 71% 30.16 in 10.0 mi Calm Calm - N/A   Overcast
8:55 PM 48.2 °F - 41.0 °F 76% 30.17 in 10.0 mi Calm Calm - N/A   Overcast
9:15 PM 50.0 °F - 42.8 °F 76% 30.17 in 10.0 mi SSE 3.5 mph - N/A   Overcast
9:35 PM 48.2 °F - 44.6 °F 87% 30.17 in 9.0 mi SE 4.6 mph - N/A   Overcast
9:55 PM 48.2 °F - 44.6 °F 87% 30.17 in 10.0 mi East 4.6 mph - N/A   Overcast
10:15 PM 46.4 °F 43.5 °F 42.8 °F 87% 30.17 in 10.0 mi ESE 5.8 mph - N/A   Overcast
10:35 PM 46.4 °F 42.9 °F 42.8 °F 87% 30.16 in 10.0 mi ESE 6.9 mph - N/A   Overcast
10:55 PM 46.4 °F 43.5 °F 44.6 °F 93% 30.17 in 10.0 mi SE 5.8 mph - N/A   Overcast
11:15 PM 46.4 °F 44.3 °F 44.6 °F 93% 30.16 in 10.0 mi SE 4.6 mph - N/A   Overcast
11:35 PM 46.4 °F 42.9 °F 44.6 °F 93% 30.16 in 10.0 mi SE 6.9 mph - N/A   Overcast
11:55 PM 46.4 °F 42.4 °F 42.8 °F 87% 30.16 in 10.0 mi East 8.1 mph - N/A   Overcast